|
NORAD ID: 14521 Int'l Code: 1983-115A
Perigee: 1,486.8 km
Apogee: 1,531.1 km
Inclination: 73.6 °
Period: 116.0 minutes
Semi major axis: 7879 km
Launch date: November 24, 1983
Source: Commonwealth of Independent States (former USSR) (CIS)
Two Line Element Set (TLE):
1 14521U 83115A 13138.85238058 -.00000003 00000-0 10446-3 0 2441
2 14521 073.6183 232.2203 0028082 334.7565 163.2023 12.41134039336535
Source:
NASA's NSSDC Master Catalog entry for COSMOS 1510
|